Location: Newark
(47.5833°N, 8.1500°E)
Time: 00:40:28
(UTC+00:00)

Transit 2A - All Passes

Search period start: 27 October 2020 00:00
Search period end: 06 November 2020 00:00
Orbit: 593 x 966 km, 66.7° (Epoch: 26 October)

Date Brightness Start Highest point End Pass type
(mag) Time Alt. Az. Time Alt. Az. Time Alt. Az.
27 Oct - 00:27:48 10° S 00:33:57 53° ESE 00:40:02 10° NE visible
27 Oct - 02:11:29 10° WSW 02:17:26 40° NW 02:23:16 10° NNE visible
27 Oct - 03:58:43 10° WNW 04:02:25 16° NNW 04:06:01 10° NNE visible
27 Oct - 05:46:03 10° NNW 05:48:21 12° N 05:50:35 10° NNE daylight
27 Oct - 07:29:22 10° NNW 07:33:56 23° NNE 07:38:10 10° E daylight
27 Oct - 09:12:22 10° NNW 09:18:08 83° NE 09:23:15 10° SE daylight
27 Oct - 10:57:08 10° WNW 11:00:27 16° WSW 11:03:35 10° SW daylight
27 Oct - 23:54:04 10° S 23:59:54 39° ESE 00:05:41 10° NE visible
28 Oct - 01:36:54 10° WSW 01:43:07 51° NW 01:49:10 10° NNE visible
28 Oct - 03:23:35 10° WNW 03:27:49 18° NNW 03:31:55 10° NNE visible
28 Oct - 05:11:30 10° NNW 05:13:39 12° N 05:15:45 10° NNE visible
28 Oct - 06:55:18 10° NNW 06:59:24 19° NNE 07:03:15 10° ENE daylight
28 Oct - 08:38:11 10° NNW 08:43:54 62° NE 08:49:00 10° SE daylight
28 Oct - 10:22:17 10° NW 10:26:35 24° WSW 10:30:34 10° SSW daylight
28 Oct - 23:20:34 10° SSE 23:25:55 29° ESE 23:31:13 10° NE visible
29 Oct - 01:02:29 10° SW 01:08:50 65° NW 01:15:03 10° NNE visible
29 Oct - 02:48:32 10° WNW 02:53:15 21° NNW 02:57:50 10° NNE visible
29 Oct - 04:36:41 10° NNW 04:38:56 12° N 04:41:08 10° NNE visible
29 Oct - 06:21:12 10° NNW 06:24:49 16° NNE 06:28:14 10° ENE daylight
29 Oct - 08:04:03 10° NNW 08:09:37 46° NE 08:14:36 10° ESE daylight
29 Oct - 09:47:43 10° NW 09:52:40 33° WSW 09:57:09 10° S daylight
29 Oct - 22:47:23 10° SSE 22:51:59 21° ESE 22:56:33 10° ENE night (unlit)
30 Oct - 00:28:12 10° SW 00:34:36 84° WNW 00:40:53 10° NE visible
30 Oct - 02:13:34 10° W 02:18:44 25° NW 02:23:46 10° NNE visible
30 Oct - 04:01:40 10° NW 04:04:14 13° N 04:06:44 10° NNE visible
30 Oct - 05:47:05 10° NNW 05:50:11 14° NNE 05:53:09 10° NE daylight
30 Oct - 07:29:57 10° NNW 07:35:16 36° NE 07:40:04 10° ESE daylight
30 Oct - 09:13:19 10° NW 09:18:41 47° WSW 09:23:28 10° S daylight
30 Oct - 22:14:40 10° SE 22:18:06 15° ESE 22:21:31 10° ENE night (unlit)
30 Oct - 23:54:05 10° SSW 00:00:27 75° ESE 00:06:42 10° NE visible
31 Oct - 01:38:42 10° W 01:44:17 31° NW 01:49:42 10° NNE visible
31 Oct - 03:26:31 10° NW 03:29:33 14° NNW 03:32:29 10° NNE visible
31 Oct - 05:12:54 10° NNW 05:15:31 13° NNE 05:18:03 10° NE visible
31 Oct - 06:55:52 10° NNW 07:00:51 28° NE 07:05:24 10° E daylight
31 Oct - 08:39:00 10° NW 08:44:37 67° WSW 08:49:36 10° SSE daylight
31 Oct - 21:43:39 10° ESE 21:44:17 10° E 21:44:55 10° E night (unlit)
31 Oct - 23:20:07 10° SSW 23:26:20 56° ESE 23:32:26 10° NE night (unlit)
01 Nov - 01:03:59 10° WSW 01:09:53 38° NW 01:15:36 10° NNE visible
01 Nov - 02:51:21 10° NW 02:54:54 15° NNW 02:58:20 10° NNE visible
01 Nov - 04:38:36 10° NNW 04:40:50 12° N 04:43:00 10° NNE visible
01 Nov - 06:21:48 10° NNW 06:26:23 23° NNE 06:30:36 10° E daylight
01 Nov - 08:04:47 10° NW 08:10:29 88° NE 08:15:32 10° SSE daylight
01 Nov - 09:49:47 10° WNW 09:52:44 15° WSW 09:55:31 10° SW daylight
01 Nov - 22:46:22 10° S 22:52:16 42° ESE 22:58:06 10° NE night (unlit)
02 Nov - 00:29:23 10° WSW 00:35:32 48° NW 00:41:31 10° NNE visible
02 Nov - 02:16:13 10° WNW 02:20:17 17° NNW 02:24:14 10° NNE visible
02 Nov - 04:04:05 10° NNW 04:06:07 12° N 04:08:07 10° NNE visible
02 Nov - 05:47:43 10° NNW 05:51:51 19° NNE 05:55:42 10° ENE daylight
02 Nov - 07:30:36 10° NNW 07:36:17 65° NE 07:41:19 10° SE daylight
02 Nov - 09:14:49 10° WNW 09:18:52 22° WSW 09:22:38 10° SSW daylight
02 Nov - 22:12:49 10° S 22:18:16 31° ESE 22:23:39 10° NE night (unlit)
02 Nov - 23:54:56 10° SW 00:01:15 62° NW 00:07:23 10° NNE visible
03 Nov - 01:41:08 10° WNW 01:45:43 20° NNW 01:50:09 10° NNE visible
03 Nov - 03:29:20 10° NNW 03:31:25 12° N 03:33:27 10° NNE visible
03 Nov - 05:13:38 10° NNW 05:17:16 16° NNE 05:20:41 10° ENE visible
03 Nov - 06:56:28 10° NNW 07:02:00 48° NE 07:06:57 10° ESE daylight
03 Nov - 08:40:12 10° NW 08:44:58 31° WSW 08:49:18 10° S daylight
03 Nov - 21:39:33 10° SSE 21:44:19 23° ESE 21:49:03 10° ENE night (unlit)
03 Nov - 23:20:37 10° SW 23:27:01 80° NW 23:33:15 10° NNE night (unlit)
04 Nov - 01:06:08 10° W 01:11:11 24° NW 01:16:05 10° NNE visible
04 Nov - 02:54:20 10° NNW 02:56:43 12° N 02:59:02 10° NNE visible
04 Nov - 04:39:32 10° NNW 04:42:38 14° NNE 04:45:36 10° NE visible
04 Nov - 06:22:22 10° NNW 06:27:39 37° NE 06:32:26 10° ESE daylight
04 Nov - 08:05:46 10° NW 08:10:59 44° WSW 08:15:40 10° S daylight
04 Nov - 21:06:43 10° SE 21:10:26 16° ESE 21:14:07 10° ENE night (unlit)
04 Nov - 22:46:28 10° SSW 22:52:51 79° ESE 22:59:04 10° NE night (unlit)
05 Nov - 00:31:15 10° W 00:36:44 29° NW 00:42:00 10° NNE visible
05 Nov - 02:19:12 10° NW 02:22:01 13° NNW 02:24:47 10° NNE visible
05 Nov - 04:05:23 10° NNW 04:07:59 13° NNE 04:10:29 10° NE visible
05 Nov - 05:48:17 10° NNW 05:53:15 29° NE 05:57:48 10° E daylight
05 Nov - 07:31:27 10° NW 07:36:57 62° WSW 07:41:50 10° SSE daylight
05 Nov - 20:34:55 10° ESE 20:36:35 11° E 20:38:16 10° E night (unlit)
05 Nov - 22:12:27 10° SSW 22:18:43 60° ESE 22:24:49 10° NE night (unlit)
